Regional Weather Roundup
Issued by NWS

Home | Current Version | Previous Version | Graphics & Text | Print | Product List | Glossary On
Versions: 1 2 3 4 5 6 7 8 9 10 11 12 13 14 15 16 17 18 19 20 21 22 23 24 25 26 27 28 29 30 31 32 33 34 35 36 37 38 39 40 41 42 43 44 45 46 47 48 49 50
000
ASUS45 KPSR 260110
RWRAZ

ARIZONA REGIONAL HOURLY WEATHER ROUNDUP
NATIONAL WEATHER SERVICE PHOENIX AZ
600 PM MST THU DEC 25 2014

NOTE: FAIR INDICATES FEW OR NO CLOUDS BELOW 12,000 FEET WITH NO
SIGNIFICANT WEATHER AND/OR OBSTRUCTIONS TO VISIBILITY.

AZZ001>003-036-260200-
NORTHWEST ARIZONA

CITY           SKY/WX    TMP DP  RH WIND       PRES   REMARKS
BULLHEAD CITY  PTCLDY    55   9  15 N14       29.83R
KINGMAN        MOCLDY    39   5  24 N7        29.80R WCI  34
$$

AZZ004>008-015-016-018-260200-
NORTH CENTRAL ARIZONA

CITY           SKY/WX    TMP DP  RH WIND       PRES   REMARKS
GRAND CANYON   MOCLDY    24   4  42 W8        29.69R WCI  15
PRESCOTT       CLEAR     34  10  37 NW10      29.72R WCI  26
FLAGSTAFF      MOCLDY    26  15  63 W8        29.66S WCI  18
PAYSON         PTCLDY    37  21  52 SW5       29.72R WCI  34
PAGE           MOCLDY    37  15  40 W8G22     29.68R WCI  31
$$

AZZ009>014-017-260200-
NORTHEAST ARIZONA

CITY           SKY/WX    TMP DP  RH WIND       PRES   REMARKS
WINSLOW        CLOUDY    38  22  52 W12       29.68R WCI  30
SAINT JOHNS    CLOUDY    34  28  79 S13       29.68S WCI  25
WINDOW ROCK    LGT SNOW  28  25  88 SW5       29.66R FOG     WCI  23
SHOW LOW       PTCLDY    28  23  80 S10       29.71R WCI  19
$$

AZZ023-260200-
GREATER PHOENIX AREA

CITY           SKY/WX    TMP DP  RH WIND       PRES   REMARKS
PHOENIX        PTCLDY    58  28  32 SW9       29.70S
BUCKEYE          N/A     54  18  24 W9        29.75R
GLENDALE       PTCLDY    55  23  28 W6        29.73R
LUKE AFB       CLEAR     55  23  28 W14       29.71R
DEER VALLEY    CLEAR     55  24  30 W9        29.70R
SCOTTSDALE     CLEAR     56  29  35 SW5       29.72R
CHANDLER       PTCLDY    54  32  43 SW9       29.72R
$$

AZZ027-028-260200-
SOUTHWEST MARICOPA COUNTY AND PINAL COUNTY

CITY           SKY/WX    TMP DP  RH WIND       PRES   REMARKS
CASA GRANDE    CLEAR     54  28  37 CALM      29.73R
GILA BEND      FAIR      56  21  25 W5        29.76R
$$

AZZ503-504-507>509-260200-
SOUTHEAST ARIZONA

CITY           SKY/WX    TMP DP  RH WIND       PRES   REMARKS
TUCSON         CLOUDY    54  32  43 NW15      29.75R
DAVIS-MONTHAN  DRIZZLE   51  33  50 NW16G22   29.73R
RYAN FIELD       N/A     55  39  54 NW8       29.77
NOGALES        CLOUDY    56  36  47 SW23G30   29.77R
SIERRA VISTA   LGT RAIN  53  32  44 SW14G36   29.74S
DOUGLAS        CLEAR     55  18  23 SW25G33   29.74R
SAFFORD        MOCLDY    52  24  33 NW15      29.67R
$$

AZZ020-021-025-026-031-260200-
SOUTHWEST ARIZONA

CITY           SKY/WX    TMP DP  RH WIND       PRES   REMARKS
YUMA           MOCLDY   N/A  16 N/A N14       29.79R
$$

CAZ031-033-041-043-047-048-061-260200-
SOUTHERN CALIFORNIA

CITY           SKY/WX    TMP DP  RH WIND       PRES   REMARKS
DOWNTOWN L.A.  PTCLDY    60  18  19 NW6       29.84S
L.A. AIRPORT   PTCLDY    59  11  15 N15G23    29.86R
SAN DIEGO      PTCLDY    62  37  39 W7        29.83R
BURBANK        PTCLDY    57  19  22 N17G26    29.85R
ONTARIO        PTCLDY    58  18  21 E6        29.82R
RIVERSIDE      PTCLDY    57  16  20 NE12G20   29.84R
PALM SPRINGS   FAIR      61   3  10 N15G21    29.83R
EL CENTRO NAS  CLOUDY    60  24  25 N8        29.80R
IMPERIAL       CLOUDY    62  18  18 N9        29.79R
BLYTHE         CLEAR     58   6  12 NW20      29.81R
NEEDLES        PTCLDY    56   7  14 NW14      29.82R
$$

NVZ020-UTZ003-260200-
SOUTHERN NEVADA-UTAH

CITY           SKY/WX    TMP DP  RH WIND       PRES   REMARKS
LAS VEGAS      PTCLDY    48  12  23 NW12G18   29.80S
SALT LAKE CITY LGT SNOW  29  27  92 N9        29.76R FOG     WCI  20
$$

NMZ009-TXZ055-260200-
NEW MEXICO-WEST TEXAS

CITY           SKY/WX    TMP DP  RH WIND       PRES   REMARKS
ALBUQUERQUE    MOCLDY    43  18  36 VRB3      29.62R
EL PASO        MOCLDY    63  17  17 SW24G30   29.69R
$$


........................KEY........................
SKY/WX - SKY CONDITION/WEATHER
TMP    - TEMPERATURE IN FAHRENHEIT
DP     - DEW POINT IN FAHRENHEIT
RH     - RELATIVE HUMIDITY IN PERCENT
WIND   - DIRECTION AND SPEED IN MILES PER HOUR (MPH)
VRB    - VARIABLE WIND DIRECTION
PRES   - MEAN SEA LEVEL PRESSURE IN INCHES OF MERCURY
         F - FALLING PRESSURE   R - RISING PRESSURE
         S - STEADY PRESSURE
VSB    - VISIBILITY IN MILES
HX     - HEAT INDEX IN FAHRENHEIT
WCI    - WIND CHILL INDEX IN FAHRENHEIT
TC     - TEMPERATURE IN CELSIUS WHICH IS ALSO KNOWN AS
         TEMPERATURE IN CENTIGRADE
AFB    - AIR FORCE BASE
         LUKE AFB IS LUKE AIR FORCE BASE
         DAVIS-MONTHAN IS DAVIS-MONTHAN AIR FORCE BASE
NAS    - NAVAL AIR STATION
         EL CENTRO NAS IS EL CENTRO NAVAL AIR STATION
N/A    - NOT AVAILABLE



USA.gov is the U.S. government's official web portal to all federal, state and local government web resources and services.